Tracking 19246 objects as of 21-Sep-2018
HD Live streaming from Space Station
objects crossing your sky now

FENGYUN 1C DEB

Track FENGYUN 1C DEB now!
10-day predictions


NORAD ID: 31430
Int'l Code: 1999-025BTS
Perigee: 822.6 km
Apogee: 867.8 km
Inclination: 99.0 °
Period: 101.7 minutes
Semi major axis: 7216 km
RCS: 0.011 m2 (small)
Launch date: May 10, 1999
Source: People's Republic of China (PRC)
Launch site: Taiyaun Space Center, China (TSC)

Note: This is SATELLITE DEBRIS
aabbcc
Your satellite tracking list
Your tracking list is empty




NASA's NSSDC Master Catalog

Two Line Element Set (TLE):
1 31430U 99025BTS 18263.02745083 +.00000287 +00000-0 +16712-3 0  9992
2 31430 098.9878 289.9853 0031308 042.8416 021.7377 14.16260593586706
Source of the keplerian elements: AFSPC